Temperature
13 14 14 14 14 14 14 14 14 14 14 14 15 15 15 15 15 15 15 15 15 15 15 15 15 15 15 15 15 15 15 15 15 15 15 15 14 14 15 15 15 15 15
14 14 14 14 14 14 14 14 14 14 14 14 14 14 15 15 15 15 15 15 15 15 15 15 15 15 15 15 15 15 15 15 14 14 14 14 14 14 14 14 14 14 14
14 14 14 14 14 14 14 14 14 14 14 14 14 14 14 14 14 14 14 15 15 15 14 14 15 15 14 14 14 14 14 14 14 14 14 14 14 14 14 14 14 14 14
13 13 13 13 13 13 14 14 14 14 14 14 14 14 14 14 14 14 14 14 14 14 14 14 14 14 14 14 14 14 14 14 14 14 14 14 14 14 14 14 14 14 14
13 13 13 13 13 13 13 13 13 13 14 14 14 14 14 14 14 14 14 14 14 14 14 14 14 14 14 14 14 14 14 14 14 14 14 14 14 14 14 14 14 14 14
13 13 13 13 13 13 13 13 13 13 13 13 13 13 14 13 13 13 14 14 14 14 14 14 14 14 14 14 14 14 13 13 13 13 13 13 13 14 14 14 14 14 14
13 13 13 13 13 13 13 13 13 13 13 13 13 13 13 13 13 13 13 14 14 14 14 14 14 14 14 13 13 13 13 13 13 13 13 13 13 13 14 14 14 14 14
12 12 12 12 12 13 13 13 13 13 13 13 13 13 13 13 13 13 13 13 13 14 13 13 13 13 13 13 13 13 13 13 13 13 13 13 13 13 13 13 13 13 13
12 12 12 12 12 12 12 12 13 13 13 13 13 13 13 13 13 13 13 13 13 13 13 13 13 13 13 13 13 13 13 13 13 13 13 13 13 13 13 13 13 13 13
12 12 12 12 12 12 12 12 12 12 12 13 13 13 12 12 12 13 13 13 13 13 13 13 13 13 13 13 13 13 13 12 12 12 13 13 13 13 13 13 13 13 13
12 12 12 12 12 12 12 12 12 12 12 12 12 12 12 12 12 12 12 12 12 12 12 13 13 12 12 12 12 12 12 12 12 12 12 12 12 13 13 13 12 12 12
12 12 12 12 12 12 11 11 12 12 12 12 12 12 12 12 12 12 12 12 12 12 12 12 12 12 12 12 12 12 12 12 12 12 12 12 12 12 12 12 12 12 12
11 11 11 11 11 11 11 11 11 11 11 11 11 11 11 11 11 12 12 12 12 12 12 12 12 12 12 12 12 12 12 12 12 12 12 12 12 12 12 12 12 12 12
11 11 11 11 11 11 11 11 11 11 11 11 11 11 11 11 11 11 11 11 11 11 11 11 11 11 11 11 11 11 11 11 11 11 12 11 11 11 11 11 11 11 11
11 11 11 11 11 11 11 11 11 11 10 11 11 11 11 11 11 11 11 11 11 11 11 11 11 11 11 11 11 11 11 11 11 11 11 11 11 11 11 11 11 11 11
11 11 11 11 11 11 10 10 10 10 10 10 10 10 10 10 10 10 10 10 10 10 11 11 10 11 11 11 11 11 11 11 11 11 11 11 11 11 11 11 11 11 10
11 11 11 11 10 10 10 10 10 10 10 10 10 10 10 10 10 10 10 10 10 10 10 10 10 10 10 10 10 11 11 11 11 11 10 10 10 10 10 10 10 10 10
11 11 10 10 10 10 10 10 10 10 10 10 10 9 9 9 9 10 10 10 10 10 10 9 10 10 10 10 10 10 10 10 10 10 10 10 10 10 10 10 10 10 10
11 10 10 10 10 10 10 10 10 9 9 9 9 9 9 9 9 9 9 9 9 9 9 9 9 9 9 9 9 10 10 10 10 10 10 9 9 9 9 9 9 9 9
10 10 10 10 10 10 9 9 9 9 9 9 9 9 9 9 9 9 9 9 9 9 9 9 9 9 9 9 9 9 9 9 9 9 9 9 9 9 9 9 9 9 9
10 10 10 10 9 9 9 9 9 9 8 8 8 8 8 8 8 8 8 8 8 8 8 8 8 8 8 8 8 8 8 8 8 8 8 8 8 8 8 8 8 8 8
10 10 9 9 9 9 9 9 8 8 8 8 8 8 8 8 8 8 8 8 8 8 8 8 8 8 8 8 8 8 7 7 7 8 8 8 8 8 8 8 8 8 8
9 9 9 9 9 9 9 8 8 8 8 8 8 8 8 8 8 8 7 8 8 8 8 8 7 8 8 8 8 7 7 7 7 7 7 7 7 7 7 7 7 7 7
9 9 9 9 9 8 8 8 8 8 8 8 8 8 8 7 7 7 7 7 7 7 7 7 7 7 7 7 7 7 7 7 7 6 6 7 6 7 7 7 7 7 7
9 9 9 8 8 8 8 8 8 8 8 7 7 7 7 7 7 7 7 7 7 7 7 7 7 7 7 7 7 7 7 7 7 6 6 6 6 6 6 6 6 6 6
8 8 8 8 8 8 8 7 7 7 7 7 7 7 7 7 7 7 7 7 7 7 7 6 7 7 7 7 6 6 6 6 6 6 6 6 6 6 6 6 6 5 5
Wind_Speed
2 1 5 5 6 6 6 6 7 7 7 6 6 7 7 7 8 8 8 8 7 8 8 9 10 11 11 12 13 13 13 13 14 14 14 14 14 14 14 13 13 14 15
4 4 6 6 6 6 6 7 6 6 6 6 6 6 6 6 7 7 6 7 7 7 8 8 10 10 10 11 11 11 12 12 13 13 13 13 13 13 13 13 13 13 14
5 6 6 7 7 7 7 7 6 6 6 6 5 5 6 6 6 6 6 6 6 6 7 8 9 9 9 10 10 11 11 11 11 11 11 10 11 12 12 12 12 13 13
7 6 6 7 7 7 7 6 6 5 5 5 5 5 5 5 5 5 5 5 5 6 6 7 8 8 9 9 9 9 9 10 9 9 8 8 9 10 11 11 11 12 13
7 6 6 7 7 7 7 7 5 5 5 4 5 5 5 5 5 5 4 5 6 6 6 7 7 8 8 8 8 8 8 9 8 7 7 6 7 10 10 11 11 12 12
5 6 6 6 6 6 6 6 5 4 4 4 4 4 4 4 4 4 4 5 6 7 7 7 7 7 8 7 7 7 7 8 8 7 6 7 7 9 10 11 11 11 11
4 5 5 6 5 5 5 5 5 4 4 3 3 3 4 4 4 4 4 5 6 6 7 7 7 7 7 7 7 7 7 7 8 7 7 7 8 9 10 10 10 10 11
5 5 5 5 5 5 4 4 4 4 4 3 3 3 3 4 4 4 4 5 5 6 7 6 6 6 7 7 7 7 7 7 7 7 6 7 8 10 10 10 11 10 11
6 5 4 4 4 4 4 4 3 3 3 3 3 3 3 3 4 4 4 5 6 6 6 6 6 5 6 6 7 7 7 7 7 6 6 6 8 9 10 10 11 11 11
4 4 3 3 4 3 2 3 3 3 3 3 3 3 2 2 3 4 4 5 6 6 6 5 6 6 5 5 6 6 6 6 6 6 5 6 8 9 10 10 11 11 11
2 2 2 2 3 3 2 2 3 3 3 3 3 3 3 2 3 3 4 5 5 5 5 5 5 6 5 4 5 5 5 5 6 5 4 6 8 9 10 10 10 10 10
2 1 1 2 2 2 2 2 2 2 3 3 3 4 3 2 2 2 3 4 4 4 5 5 5 5 4 3 3 4 5 5 5 4 5 7 8 9 9 9 10 10 10
3 2 1 1 1 2 2 2 2 2 2 2 3 3 3 3 2 2 2 2 3 4 4 4 4 4 4 3 3 4 4 5 5 4 6 8 8 8 9 9 9 9 9
3 3 2 1 1 1 2 1 2 2 2 1 1 2 3 2 2 1 2 2 3 3 3 4 3 3 4 3 4 4 4 4 4 5 5 7 8 8 8 9 8 8 8
4 3 3 2 2 2 2 1 2 2 1 1 1 1 2 2 1 1 1 2 3 3 4 3 3 3 3 3 3 4 3 4 4 5 5 6 8 8 8 8 8 8 8
5 4 3 3 3 2 2 2 2 2 2 1 1 2 2 2 2 1 1 2 2 3 4 4 4 3 2 3 2 3 3 4 5 5 5 5 7 7 8 8 8 8 7
6 5 4 4 3 3 3 2 2 2 2 2 2 2 3 3 3 2 2 1 2 3 4 4 3 4 2 2 2 2 3 4 5 5 5 5 6 6 7 7 8 8 7
6 5 4 3 3 3 3 2 2 2 2 2 2 3 3 4 4 4 2 2 2 3 3 3 3 2 2 2 1 1 2 3 4 5 5 6 6 5 6 7 8 8 7
6 6 4 3 3 3 3 2 2 2 2 1 2 2 3 3 4 4 3 2 3 3 2 3 2 3 3 3 2 1 1 2 3 5 5 5 6 6 6 6 7 7 7
6 5 4 3 3 3 2 1 1 1 1 1 1 2 2 3 3 3 2 3 4 3 2 3 3 2 2 3 3 3 2 2 2 3 4 5 5 5 6 6 6 5 5
4 4 4 4 3 3 2 2 2 2 1 1 1 1 2 2 3 3 2 2 3 3 3 4 3 3 2 3 3 3 3 3 2 2 3 4 4 5 6 5 4 4 3
5 4 4 4 4 4 3 3 2 2 1 1 1 1 2 2 2 3 3 2 2 3 3 4 4 2 1 2 2 3 1 1 2 1 1 3 3 4 4 4 4 3 3
5 4 4 3 4 4 3 2 2 1 1 1 0 1 1 2 2 2 3 3 3 3 4 5 5 4 3 1 1 3 3 3 1 1 0 1 2 2 2 3 3 3 3
5 4 4 3 3 3 4 4 4 3 2 2 2 1 1 1 2 3 3 3 3 3 4 5 4 4 5 3 1 1 1 3 3 1 1 0 1 2 2 2 2 2 2
5 4 4 3 3 3 4 5 5 3 2 1 1 1 1 1 1 2 2 3 3 2 3 4 4 4 4 4 3 2 1 1 1 2 2 1 1 1 2 2 2 2 3
3 3 3 3 3 3 3 4 6 5 3 2 2 2 1 1 1 1 2 2 2 3 3 4 4 4 4 4 3 3 3 2 3 2 2 2 2 2 1 2 3 3 4
Wind_Direction
182 167 117 106 97 93 95 95 94 96 100 101 103 100 96 95 96 94 100 101 101 103 104 104 107 105 102 100 98 96 96 93 91 92 89 90 90 91 91 88 87 84 86
160 135 117 107 102 95 96 97 95 97 100 103 107 111 107 106 103 100 100 103 104 108 109 108 107 107 107 106 104 102 101 98 94 92 89 88 89 92 95 92 92 91 90
118 119 114 104 101 98 96 96 93 97 99 105 109 115 117 116 109 106 107 107 108 107 111 108 108 107 107 110 110 108 107 104 98 92 91 90 94 97 98 96 96 95 94
116 115 114 105 101 96 93 94 95 102 100 105 109 111 118 118 120 119 117 117 116 116 116 110 110 111 110 111 113 111 112 107 98 94 93 95 100 105 105 102 102 100 97
102 109 112 106 100 93 88 88 89 106 109 109 109 110 115 118 124 124 122 123 123 123 118 116 116 116 118 115 114 115 111 106 94 93 96 105 107 112 109 107 106 103 100
96 101 112 107 103 94 86 82 84 95 105 111 114 114 115 116 124 121 122 125 128 125 118 118 123 123 124 124 122 119 111 101 95 89 101 117 120 120 115 112 110 109 106
107 99 107 104 103 100 92 82 82 93 97 105 112 118 120 117 128 134 128 128 127 125 122 122 127 130 133 129 127 121 113 101 99 98 107 121 129 128 123 120 115 112 109
108 89 92 94 90 90 93 90 80 84 81 86 98 108 114 120 129 135 141 142 133 127 125 128 129 133 138 133 128 121 114 104 101 105 114 125 130 129 128 125 120 115 110
100 90 78 85 88 88 88 91 82 76 74 70 83 89 96 112 126 136 139 146 143 136 131 134 134 133 141 138 126 117 113 107 103 112 118 127 133 130 127 127 123 118 113
94 85 77 77 77 74 83 95 89 82 82 68 61 72 88 104 119 133 133 140 143 144 140 141 140 137 138 136 127 118 114 105 102 111 119 136 136 134 130 129 126 122 117
101 99 82 70 64 68 82 93 88 81 81 79 67 62 75 101 121 138 137 138 142 148 147 148 145 143 135 138 130 118 113 105 108 112 129 150 149 140 134 132 129 126 122
165 169 123 92 68 70 77 70 71 72 82 91 86 74 70 86 120 132 134 148 151 152 152 149 150 147 138 132 133 122 116 110 113 116 138 148 148 142 139 138 135 129 125
190 190 186 149 112 98 78 85 77 73 82 85 87 80 80 78 80 100 113 131 145 147 138 143 144 136 126 125 122 119 121 114 116 123 143 149 149 146 143 140 138 133 130
183 198 201 177 153 141 122 116 109 88 79 76 84 93 94 85 66 78 108 131 134 143 131 123 124 124 123 128 129 122 121 117 120 124 138 147 151 150 148 145 144 140 136
183 190 200 192 190 174 140 142 127 122 121 135 123 124 122 111 123 123 143 146 147 146 140 128 124 118 116 114 119 122 119 123 129 130 132 144 148 150 152 149 147 146 142
188 193 199 198 194 169 162 164 160 149 160 159 157 163 162 153 164 148 146 152 158 158 156 148 144 141 138 120 110 118 119 121 130 132 127 133 143 148 151 151 149 147 145
190 188 193 195 181 173 173 177 166 169 168 174 191 171 172 171 167 157 165 165 170 161 149 137 133 128 131 115 108 114 116 117 121 126 128 124 128 138 145 144 145 143 142
181 180 190 187 175 178 175 172 172 176 169 187 193 176 176 176 169 154 155 174 167 145 138 146 151 139 131 120 110 106 108 112 114 120 120 123 121 125 134 137 141 142 141
180 179 181 184 183 183 177 171 171 172 170 179 173 166 176 177 170 156 158 165 150 130 138 162 156 148 141 128 118 83 86 110 119 117 111 115 119 118 119 127 133 136 140
174 174 175 180 185 179 168 152 142 139 165 162 164 170 175 183 178 161 153 155 148 138 144 139 140 129 141 139 113 72 47 66 103 118 121 114 112 116 116 116 119 125 139
162 166 172 178 185 172 164 171 180 199 205 194 176 171 171 182 173 157 155 161 159 158 155 139 135 130 120 120 104 80 42 40 59 82 108 109 103 106 111 114 113 113 129
165 170 178 188 185 186 180 179 181 183 203 201 179 186 195 179 176 171 160 180 166 148 144 146 142 142 135 134 135 124 96 30 27 32 93 117 113 106 106 116 123 125 134
177 184 187 195 194 189 172 149 125 93 59 50 195 218 260 187 175 173 172 174 171 166 167 164 160 159 169 180 148 144 155 191 182 344 47 114 124 130 129 127 128 135 144
194 188 187 193 191 190 170 166 170 175 195 221 217 216 249 206 180 175 175 170 179 180 175 178 172 163 163 180 178 106 139 149 153 167 298 313 152 160 168 148 152 156 169
189 183 185 180 182 184 180 177 177 185 199 195 188 193 209 230 198 185 181 178 183 184 184 184 170 167 171 175 176 159 110 87 131 162 197 229 282 236 197 185 180 186 199
182 177 177 176 187 183 180 182 181 186 187 178 189 196 207 222 230 217 196 193 197 192 188 187 176 174 176 172 176 175 170 177 181 165 186 203 230 263 249 214 196 202 207
Height
1534 1535 1535 1536 1536 1536 1536 1536 1537 1537 1537 1537 1537 1538 1538 1538 1539 1539 1539 1540 1540 1540 1541 1541 1541 1541 1542 1542 1542 1542 1543 1543 1543 1544 1544 1545 1545 1545 1546 1546 1546 1546 1546
1534 1534 1535 1535 1535 1536 1536 1536 1536 1536 1537 1537 1537 1537 1538 1538 1539 1539 1539 1540 1540 1540 1541 1541 1542 1542 1542 1542 1543 1543 1543 1544 1544 1545 1545 1546 1546 1547 1547 1547 1547 1548 1548
1533 1534 1534 1535 1535 1535 1535 1535 1536 1536 1536 1536 1537 1537 1537 1538 1538 1539 1539 1539 1540 1540 1541 1542 1542 1542 1543 1543 1543 1544 1544 1545 1545 1545 1546 1546 1547 1547 1548 1548 1549 1549 1549
1533 1533 1534 1534 1534 1535 1535 1535 1535 1535 1535 1536 1536 1536 1537 1538 1538 1538 1539 1539 1540 1540 1541 1541 1542 1543 1543 1543 1544 1544 1545 1545 1546 1546 1547 1547 1548 1548 1549 1549 1550 1550 1550
1532 1533 1533 1533 1534 1534 1534 1534 1534 1534 1535 1535 1535 1536 1536 1537 1537 1538 1538 1538 1539 1540 1540 1541 1542 1542 1543 1544 1544 1545 1545 1546 1546 1547 1547 1548 1548 1549 1549 1550 1550 1551 1551
1531 1532 1532 1533 1533 1533 1533 1533 1533 1534 1534 1534 1535 1535 1535 1536 1536 1537 1537 1538 1539 1539 1540 1540 1541 1542 1543 1543 1544 1545 1545 1546 1547 1547 1548 1548 1549 1549 1550 1550 1551 1551 1551
1530 1531 1531 1532 1532 1532 1532 1532 1532 1533 1533 1533 1534 1534 1534 1535 1535 1536 1536 1537 1538 1538 1539 1540 1541 1541 1542 1543 1544 1545 1546 1546 1547 1547 1548 1549 1549 1550 1550 1551 1551 1551 1552
1530 1530 1530 1531 1531 1531 1531 1531 1531 1531 1532 1532 1532 1533 1533 1533 1534 1535 1535 1536 1537 1537 1538 1539 1540 1541 1542 1543 1544 1545 1546 1546 1547 1548 1548 1549 1549 1550 1550 1551 1551 1552 1552
1529 1529 1529 1529 1529 1529 1529 1530 1530 1530 1530 1530 1531 1531 1532 1532 1533 1533 1534 1535 1536 1536 1537 1538 1539 1540 1541 1542 1543 1544 1545 1546 1547 1547 1548 1549 1550 1550 1551 1551 1552 1552 1553
1527 1528 1528 1528 1528 1528 1528 1528 1528 1528 1528 1529 1529 1530 1530 1531 1531 1532 1533 1533 1534 1535 1536 1536 1537 1538 1540 1541 1542 1543 1544 1546 1546 1547 1548 1549 1550 1550 1551 1551 1552 1552 1553
1526 1526 1526 1526 1526 1526 1526 1527 1527 1527 1527 1527 1527 1528 1528 1529 1530 1530 1531 1532 1533 1533 1534 1535 1536 1537 1539 1540 1541 1542 1544 1544 1546 1547 1547 1548 1549 1550 1550 1551 1552 1552 1553
1524 1524 1524 1524 1524 1524 1524 1524 1525 1525 1525 1525 1526 1526 1526 1527 1528 1529 1529 1530 1531 1532 1533 1533 1535 1536 1537 1539 1540 1541 1542 1543 1545 1546 1547 1548 1549 1550 1550 1551 1551 1552 1553
1522 1522 1522 1522 1522 1522 1522 1522 1523 1523 1523 1524 1524 1524 1525 1525 1526 1527 1527 1528 1529 1530 1531 1532 1533 1534 1535 1537 1538 1540 1541 1542 1544 1545 1546 1547 1548 1549 1549 1550 1551 1552 1552
1520 1520 1520 1520 1520 1520 1520 1520 1520 1521 1521 1521 1522 1522 1523 1523 1524 1524 1525 1526 1527 1528 1529 1530 1531 1532 1534 1535 1537 1538 1539 1541 1542 1543 1544 1546 1547 1548 1548 1549 1550 1551 1551
1517 1518 1518 1518 1518 1518 1518 1518 1518 1518 1519 1519 1520 1520 1521 1521 1521 1522 1523 1524 1525 1526 1527 1528 1529 1530 1532 1533 1535 1536 1537 1539 1541 1542 1543 1544 1545 1546 1547 1548 1549 1550 1550
1515 1515 1515 1515 1515 1515 1515 1516 1516 1516 1517 1517 1518 1518 1519 1519 1519 1520 1520 1522 1522 1523 1524 1525 1527 1528 1529 1531 1533 1534 1535 1537 1539 1540 1542 1543 1544 1545 1546 1547 1548 1549 1549
1512 1512 1513 1513 1513 1513 1513 1514 1514 1514 1514 1515 1515 1516 1517 1517 1517 1517 1518 1519 1520 1521 1522 1523 1524 1526 1527 1529 1530 1532 1533 1535 1537 1538 1540 1541 1542 1544 1545 1545 1546 1547 1548
1509 1510 1510 1511 1511 1511 1511 1511 1511 1512 1512 1513 1513 1513 1514 1515 1515 1515 1516 1517 1518 1518 1520 1521 1522 1524 1525 1526 1528 1529 1531 1533 1534 1536 1538 1539 1540 1542 1543 1544 1545 1546 1546
1506 1507 1507 1508 1508 1508 1509 1509 1509 1510 1510 1510 1510 1511 1511 1511 1512 1512 1513 1514 1515 1516 1517 1518 1520 1521 1523 1524 1526 1527 1529 1530 1532 1534 1535 1537 1538 1540 1541 1542 1543 1544 1545
1503 1504 1505 1505 1506 1506 1506 1507 1507 1507 1507 1508 1508 1508 1508 1509 1509 1510 1510 1511 1512 1513 1514 1515 1517 1519 1520 1522 1523 1525 1527 1528 1530 1531 1533 1535 1536 1538 1539 1540 1541 1542 1543
1500 1501 1502 1502 1503 1503 1503 1503 1504 1504 1505 1505 1506 1506 1506 1506 1506 1507 1508 1509 1509 1510 1511 1513 1514 1516 1517 1519 1521 1522 1524 1526 1527 1529 1531 1532 1534 1535 1537 1538 1538 1539 1540
1497 1498 1499 1500 1500 1500 1501 1501 1502 1502 1503 1503 1503 1504 1504 1504 1504 1505 1505 1506 1507 1508 1509 1510 1512 1513 1514 1517 1519 1520 1521 1525 1524 1526 1528 1530 1531 1533 1534 1535 1536 1537 1538
1493 1495 1496 1497 1497 1498 1499 1499 1500 1500 1500 1501 1501 1501 1501 1502 1502 1503 1503 1504 1504 1506 1507 1508 1509 1511 1512 1515 1517 1517 1519 1519 1521 1524 1525 1526 1528 1529 1531 1532 1533 1534 1534
1490 1492 1493 1494 1495 1495 1496 1497 1497 1497 1497 1497 1498 1498 1499 1499 1500 1501 1501 1501 1502 1503 1504 1505 1507 1508 1510 1511 1513 1514 1517 1517 1519 1520 1522 1523 1525 1526 1528 1529 1530 1531 1531
1488 1489 1490 1491 1492 1493 1493 1494 1495 1495 1495 1496 1496 1496 1496 1497 1498 1498 1499 1499 1500 1501 1502 1503 1504 1505 1507 1508 1510 1511 1513 1514 1515 1516 1517 1519 1521 1523 1524 1525 1526 1527 1528
1485 1486 1487 1488 1489 1490 1490 1491 1492 1492 1493 1493 1493 1493 1494 1494 1495 1496 1496 1497 1497 1498 1499 1500 1501 1503 1504 1506 1507 1509 1510 1512 1512 1514 1514 1515 1517 1518 1520 1522 1523 1524 1524